Regional Weather Roundup
Issued by NWS

Home | Current Version | Previous Version | Text Only | Print | Product List | Glossary On
Versions: 1 2 3 4 5 6 7 8 9 10 11 12 13 14 15 16 17 18 19 20 21 22 23 24 25 26 27 28 29 30 31 32 33 34 35 36 37 38 39 40 41 42 43 44 45 46 47
000
ASUS45 KREV 060710
RWRNV
NEVADA REGIONAL WEATHER ROUNDUP
NATIONAL WEATHER SERVICE RENO NV
1200 AM PDT WED MAY 06 2015

NOTE: "FAIR" INDICATES FEW OR NO CLOUDS BELOW 12,000 FEET WITH NO
SIGNIFICANT WEATHER AND/OR OBSTRUCTIONS TO VISIBILITY.

NVZ001-003-004-060800-
WESTERN NEVADA

CITY           SKY/WX    TMP DP  RH WIND       PRES   REMARKS
RENO           PTCLDY    57  29  34 NW12      29.90S
CARSON CITY    FAIR      50  27  40 S3        29.91S
MINDEN         FAIR      48  27  43 E5        29.93
FALLON         MOCLDY    60  31  33 W7        29.84S
LOVELOCK       PTCLDY    62  14  15 N15       29.82S
HAWTHORNE      CLEAR     61  25  25 W6        29.86R
$$

NVZ002-CAZ072-073-060800-
NORTHERN AND CENTRAL SIERRA

CITY           SKY/WX    TMP DP  RH WIND       PRES   REMARKS
S. LAKE TAHOE  PTCLDY    38  28  67 CALM      29.98S
TRUCKEE        PTCLDY    32  28  86 CALM      29.98S
SQUAW VLY 8000 NOT AVBL
SUSANVILLE     CLEAR     48  23  37 SW9       29.92
BLUE CANYON    PTCLDY    51  27  39 CALM      29.97S
MAMMOTH LAKES  FAIR      39  28  65 N3        29.99S
BRIDGEPORT     FAIR      39  10  30 CALM      29.95F
$$

NVZ030-031-036-060800-
NORTHERN NEVADA

CITY           SKY/WX    TMP DP  RH WIND       PRES   REMARKS
ELKO           CLEAR     53  31  42 E7        29.83S
WINNEMUCCA     NOT AVBL
WENDOVER       CLOUDY    55  46  71 NW3       29.84F
$$

NVZ035-037-060800-
CENTRAL NEVADA

CITY           SKY/WX    TMP DP  RH WIND       PRES   REMARKS
ELY            CLOUDY    50  38  63 S8        29.91F
EUREKA           N/A     42  28  57 CALM      29.88R
$$

NVZ013-014-060800-
SOUTH CENTRAL NEVADA

CITY           SKY/WX    TMP DP  RH WIND       PRES   REMARKS
TONOPAH        NOT AVBL
$$

NVZ017-020-022-060800-
SOUTHERN NEVADA

CITY           SKY/WX    TMP DP  RH WIND       PRES   REMARKS
LAS VEGAS      MOCLDY    77  33  20 S17       29.72S
N. LAS VEGAS   PTCLDY    75  31  19 S10       29.75R
NELLIS AFB     PTCLDY    74  37  26 SE6       29.76R
HENDERSON      MOCLDY    71  34  25 S16       29.79R
MERCURY        PTCLDY    69  32  25 SW9G22    29.79S
$$



USA.gov is the U.S. government's official web portal to all federal, state and local government web resources and services.